| time (UTC) | temp C | wind direction | speed KPH | gust KPH | rain 1hr cm | rain 24hr cm | rain mn cm | humidity % | barometer mb |
| 20260507191522 | 32 | 262 | 1.6 | 8.0 | 0.00 | 0.00 | 0.00 | 12 | 1009.3 |
| 20260507190019 | 32 | 129 | 0.0 | 11.3 | 0.00 | 0.00 | 0.00 | 11 | 1009.6 |
| 20260507184516 | 31 | 274 | 0.0 | 9.7 | 0.00 | 0.00 | 0.00 | 17 | 1009.7 |
| 20260507183029 | 31 | 271 | 0.0 | 8.0 | 0.00 | 0.00 | 0.00 | 14 | 1009.9 |
| 20260507181508 | 31 | 280 | 0.0 | 4.8 | 0.00 | 0.00 | 0.00 | 13 | 1010.0 |
| 20260507180005 | 30 | 273 | 1.6 | 11.3 | 0.00 | 0.00 | 0.00 | 13 | 1010.3 |
| 20260507174504 | 30 | 271 | 1.6 | 8.0 | 0.00 | 0.00 | 0.00 | 14 | 1010.4 |
| 20260507173001 | 30 | 219 | 0.0 | 6.4 | 0.00 | 0.00 | 0.00 | 16 | 1010.6 |
| 20260507171611 | 30 | 210 | 0.0 | 8.0 | 0.00 | 0.00 | 0.00 | 17 | 1010.7 |
| 20260507170056 | 29 | 126 | 1.6 | 9.7 | 0.00 | 0.00 | 0.00 | 17 | 1010.7 |
| 20260507164604 | 28 | 143 | 3.2 | 8.0 | 0.00 | 0.00 | 0.00 | 18 | 1011.0 |
| 20260507163051 | 28 | 217 | 1.6 | 6.4 | 0.00 | 0.00 | 0.00 | 20 | 1011.0 |
| 20260507161550 | 27 | 280 | 0.0 | 8.0 | 0.00 | 0.00 | 0.00 | 19 | 1011.1 |
| 20260507160050 | 27 | 219 | 0.0 | 6.4 | 0.00 | 0.00 | 0.00 | 20 | 1011.4 |
| 20260507154547 | 27 | 77 | 0.0 | 6.4 | 0.00 | 0.00 | 0.00 | 19 | 1011.4 |
| 20260507153049 | 26 | 120 | 0.0 | 8.0 | 0.00 | 0.00 | 0.00 | 21 | 1011.4 |
| 20260507151545 | 25 | 68 | 0.0 | 6.4 | 0.00 | 0.00 | 0.00 | 22 | 1011.4 |
| 20260507150043 | 24 | 330 | 3.2 | 11.3 | 0.00 | 0.00 | 0.00 | 23 | 1011.4 |
| 20260507144542 | 23 | 31 | 3.2 | 12.9 | 0.00 | 0.00 | 0.00 | 24 | 1011.4 |
| 20260507143045 | 22 | 14 | 1.6 | 9.7 | 0.00 | 0.00 | 0.00 | 28 | 1011.5 |
| 20260507141511 | 22 | 86 | 1.6 | 8.0 | 0.00 | 0.00 | 0.00 | 28 | 1011.4 |
| 20260507140015 | 21 | 34 | 1.6 | 9.7 | 0.00 | 0.00 | 0.00 | 29 | 1011.3 |
| 20260507134548 | 20 | 82 | 3.2 | 12.9 | 0.00 | 0.00 | 0.00 | 30 | 1011.1 |
| 20260507133039 | 20 | 53 | 4.8 | 12.9 | 0.00 | 0.00 | 0.00 | 31 | 1011.1 |
| 20260507131539 | 20 | 8 | 4.8 | 14.5 | 0.00 | 0.00 | 0.00 | 31 | 1010.9 |
| 20260507130033 | -17 | 0.0 | 0.0 | 0.00 | 0.00 | 0.00 | 1010.9 | ||
| 20260507124528 | -17 | 0.0 | 0.0 | 0.00 | 0.00 | 0.00 | 1010.9 | ||
| 20260507123024 | -17 | 0.0 | 0.0 | 0.00 | 0.00 | 0.00 | 1010.9 | ||
| 20260507121516 | -17 | 0.0 | 0.0 | 0.00 | 0.00 | 0.00 | 1010.9 | ||
| 20260507120015 | -17 | 0.0 | 0.0 | 0.00 | 0.00 | 0.00 | 1010.8 | ||
| 20260507114513 | -17 | 0.0 | 0.0 | 0.00 | 0.00 | 0.00 | 1010.9 | ||
| 20260507113006 | 18 | 39 | 0.0 | 6.4 | 0.00 | 0.00 | 0.00 | 33 | 1010.9 |
| 20260507111510 | 18 | 71 | 1.6 | 6.4 | 0.00 | 0.00 | 0.00 | 32 | 1010.9 |
| 20260507110003 | 18 | 76 | 1.6 | 6.4 | 0.00 | 0.00 | 0.00 | 32 | 1011.1 |
| 20260507104506 | 19 | 86 | 3.2 | 9.7 | 0.00 | 0.00 | 0.00 | 31 | 1011.2 |
| 20260507103100 | 19 | 61 | 1.6 | 8.0 | 0.00 | 0.00 | 0.00 | 31 | 1011.2 |
| 20260507101536 | 18 | 60 | 0.0 | 4.8 | 0.00 | 0.00 | 0.00 | 32 | 1011.4 |
| 20260507100033 | 19 | 56 | 0.0 | 3.2 | 0.00 | 0.00 | 0.00 | 32 | 1011.5 |
| 20260507094610 | 20 | 49 | 0.0 | 4.8 | 0.00 | 0.00 | 0.00 | 31 | 1011.6 |
| 20260507093101 | 20 | 47 | 1.6 | 6.4 | 0.00 | 0.00 | 0.00 | 31 | 1011.7 |
| 20260507091626 | 20 | 38 | 0.0 | 4.8 | 0.00 | 0.00 | 0.00 | 31 | 1011.7 |
| 20260507090105 | 20 | 33 | 0.0 | 4.8 | 0.00 | 0.00 | 0.00 | 32 | 1011.9 |
| 20260507084556 | 20 | 49 | 0.0 | 1.6 | 0.00 | 0.00 | 0.00 | 31 | 1011.9 |
| 20260507083052 | 20 | 41 | 0.0 | 4.8 | 0.00 | 0.00 | 0.00 | 30 | 1011.9 |
| 20260507081549 | 20 | 70 | 0.0 | 6.4 | 0.00 | 0.00 | 0.00 | 30 | 1012.0 |
| 20260507080049 | 20 | 66 | 0.0 | 14.5 | 0.00 | 0.00 | 0.00 | 29 | 1012.1 |
| 20260507074548 | 20 | 120 | 1.6 | 4.8 | 0.00 | 0.00 | 0.00 | 30 | 1012.1 |
| 20260507073048 | 20 | 65 | 1.6 | 6.4 | 0.00 | 0.00 | 0.00 | 31 | 1012.1 |
| 20260507071517 | 20 | 34 | 0.0 | 4.8 | 0.00 | 0.00 | 0.00 | 33 | 1012.0 |
| 20260507070018 | 18 | 268 | 0.0 | 0.0 | 0.00 | 0.00 | 0.00 | 36 | 1012.0 |
| 20260507064547 | 18 | 268 | 0.0 | 0.0 | 0.00 | 0.00 | 0.00 | 37 | 1012.0 |
| 20260507063045 | 18 | 268 | 0.0 | 0.0 | 0.00 | 0.00 | 0.00 | 35 | 1012.0 |
| 20260507061540 | 19 | 268 | 0.0 | 0.0 | 0.00 | 0.00 | 0.00 | 35 | 1011.8 |
| 20260507060051 | 19 | 268 | 0.0 | 0.0 | 0.00 | 0.00 | 0.00 | 35 | 1011.9 |
| 20260507054538 | 19 | 268 | 0.0 | 0.0 | 0.00 | 0.00 | 0.00 | 35 | 1011.9 |
| 20260507053040 | 20 | 268 | 0.0 | 0.0 | 0.00 | 0.00 | 0.00 | 34 | 1011.9 |
| 20260507051539 | 20 | 267 | 0.0 | 0.0 | 0.00 | 0.00 | 0.00 | 33 | 1011.9 |
| 20260507050103 | 21 | 268 | 0.0 | 0.0 | 0.00 | 0.00 | 0.00 | 32 | 1011.8 |
| 20260507050002 | 21 | 268 | 0.0 | 0.0 | 0.00 | 0.00 | 0.00 | 31 | 1011.8 |
| 20260507044602 | 21 | 268 | 0.0 | 0.0 | 0.00 | 0.00 | 0.00 | 30 | 1011.7 |
| 20260507043100 | 21 | 268 | 0.0 | 0.0 | 0.00 | 0.00 | 0.00 | 30 | 1011.6 |
| 20260507041553 | 22 | 268 | 0.0 | 0.0 | 0.00 | 0.00 | 0.00 | 28 | 1011.4 |
| 20260507040051 | 22 | 268 | 0.0 | 0.0 | 0.00 | 0.00 | 0.00 | 27 | 1011.2 |
| 20260507034557 | 22 | 268 | 0.0 | 0.0 | 0.00 | 0.00 | 0.00 | 27 | 1011.0 |
| 20260507033045 | 23 | 268 | 0.0 | 0.0 | 0.00 | 0.00 | 0.00 | 26 | 1010.8 |
| 20260507031537 | 23 | 268 | 0.0 | 0.0 | 0.00 | 0.00 | 0.00 | 25 | 1010.6 |
| 20260507030036 | 24 | 268 | 0.0 | 1.6 | 0.00 | 0.00 | 0.00 | 24 | 1010.4 |
| 20260507024549 | 25 | 279 | 0.0 | 1.6 | 0.00 | 0.00 | 0.00 | 23 | 1010.3 |
| 20260507023031 | 25 | 285 | 0.0 | 4.8 | 0.00 | 0.00 | 0.00 | 23 | 1010.1 |
| 20260507021535 | 26 | 267 | 0.0 | 8.0 | 0.00 | 0.00 | 0.00 | 22 | 1010.0 |
| 20260507020030 | 26 | 268 | 1.6 | 6.4 | 0.00 | 0.00 | 0.00 | 20 | 1009.9 |
| 20260507014538 | 27 | 235 | 1.6 | 8.0 | 0.00 | 0.00 | 0.00 | 20 | 1009.9 |
| 20260507013027 | 27 | 240 | 3.2 | 9.7 | 0.00 | 0.00 | 0.00 | 19 | 1009.9 |
| 20260507011537 | 28 | 290 | 3.2 | 9.7 | 0.00 | 0.00 | 0.00 | 19 | 1009.9 |
| 20260507010024 | 28 | 243 | 1.6 | 8.0 | 0.00 | 0.00 | 0.00 | 20 | 1009.9 |
| 20260507004523 | 29 | 276 | 0.0 | 4.8 | 0.00 | 0.00 | 0.00 | 20 | 1009.8 |
| 20260507003053 | 28 | 278 | 1.6 | 9.7 | 0.00 | 0.00 | 0.00 | 21 | 1009.8 |
| 20260507001558 | 28 | 293 | 1.6 | 8.0 | 0.00 | 0.00 | 0.00 | 21 | 1009.8 |
| 20260507000051 | 28 | 269 | 0.0 | 6.4 | 0.00 | 0.00 | 0.00 | 20 | 1009.8 |
| 20260506234548 | 28 | 286 | 0.0 | 12.9 | 0.00 | 0.00 | 0.00 | 21 | 1009.8 |
| 20260506233057 | 29 | 92 | 1.6 | 9.7 | 0.00 | 0.00 | 0.00 | 19 | 1010.0 |
| 20260506231543 | 29 | 282 | 0.0 | 9.7 | 0.00 | 0.00 | 0.00 | 20 | 1010.1 |
| 20260506230043 | 28 | 281 | 3.2 | 9.7 | 0.00 | 0.00 | 0.00 | 20 | 1010.3 |
| 20260506224535 | 28 | 39 | 1.6 | 8.0 | 0.00 | 0.00 | 0.00 | 19 | 1010.4 |
| 20260506223031 | 28 | 236 | 0.0 | 6.4 | 0.00 | 0.00 | 0.00 | 21 | 1010.7 |
| 20260506221529 | 28 | 244 | 1.6 | 11.3 | 0.00 | 0.00 | 0.00 | 22 | 1010.9 |
| 20260506220023 | 28 | 271 | 0.0 | 3.2 | 0.00 | 0.00 | 0.00 | 23 | 1011.1 |
| 20260506214520 | 27 | 266 | 1.6 | 9.7 | 0.00 | 0.00 | 0.00 | 22 | 1011.3 |
| 20260506213018 | 27 | 265 | 0.0 | 9.7 | 0.00 | 0.00 | 0.00 | 23 | 1011.6 |
| 20260506211515 | 28 | 269 | 1.6 | 6.4 | 0.00 | 0.00 | 0.00 | 22 | 1011.9 |
| 20260506210043 | 27 | 287 | 0.0 | 9.7 | 0.00 | 0.00 | 0.00 | 23 | 1012.0 |
| 20260506204540 | 27 | 293 | 1.6 | 11.3 | 0.00 | 0.00 | 0.00 | 24 | 1012.4 |
| 20260506203035 | 27 | 281 | 4.8 | 12.9 | 0.00 | 0.00 | 0.00 | 23 | 1012.5 |
| 20260506201533 | 27 | 281 | 0.0 | 9.7 | 0.00 | 0.00 | 0.00 | 25 | 1012.6 |
| 20260506200029 | 26 | 291 | 3.2 | 9.7 | 0.00 | 0.00 | 0.00 | 23 | 1012.7 |
| 20260506194534 | 25 | 279 | 4.8 | 12.9 | 0.00 | 0.00 | 0.00 | 25 | 1012.9 |
| 20260506193031 | 26 | 257 | 1.6 | 9.7 | 0.00 | 0.00 | 0.00 | 24 | 1013.1 |